COSMOS 1275 DEB, 42228

Orbit data source: Space-Track

COSMOS 1275 DEB, 42228 is space debris in LEO originally from a launch on Thu, 04 Jun 1981 UTC launched from the Plesetsk Missile And Space Complex (PKMTR). Debris objects in space refer to the collection of defunct objects orbiting the Earth. Examples of debris include non-operational satellites, rocket bodies, and fragments generated from explosions, collisions, or faulty payload assembly.

Loading next visibility...
COSMOS 1275 DEB details
Identifier
42228, 1981-053UU
Orbit
LEO
Last TLE update3 weeks ago
Origin
Flag of CISGUKOS (CIS)
ManufacturerUnknown
MissionSpacecraft
Bus & MotorUnknown
MassUnknown
Launch date (UTC)
1981-06-04 (44 years ago)
Launch vehicleUnknown
Launch site
Plesetsk Missile And Space Complex (PKMTR)
Object type
Payload
Rocket body
Debris
Shape & HBRUnknown
Radar Cross SectionSmall (<0.1 m²)

Expand to show TLE details & history

TLE from 3 weeks ago
0 COSMOS 1275 DEB
1 42228U 81053UU  24340.44556229  .00001155  00000-0  10548-2 0  9997
2 42228  82.9347 242.9267 0039734 144.2524 216.1309 13.82012148 16743
Epoch: 2024-12-05T10:41Z
Definitive object data (Epoch: 2024-12-05T10:41:36.581Z)
Latitude0.00002°
Longitude7.79803°
Altitude983.252 km
Speed7.348 km/s
True Right ascension16h 11m 42s
True Declination0° 00' 00"
Sunlit
Object was in daylight at TLE epoch
Visualization TLE readout
Latitude51.17261°
Longitude163.15802°
Altitude943.665 km
Speed7.395 km/s
Apparent Right ascension01h 23m 18s
Apparent Declination10° 02' 47"
Sunlit
Object is in full shadow
Visualization observer readout
Local Sidereal Time12:17:52
Azimuth339.456° N
Elevation-37.786°
Doppler factor1
Orbital elements
Apogee altitude983.031 km
Perigee altitude924.765 km
Semi-major axis7,332.035 km
Eccentricity0.0039734
Inclination82.9347°
RAAN242.9267°
Arg. of periapsis144.2524°
True anomaly215.8635°
Mean anomaly216.1309°
Eccentric anomaly215.99709°
Mean motion3.45706 °/min
BSTAR0.0010548
Orbital period104.13 mins
Loading maneuver chart data...
Loading historical data...
Loading historical data...
Loading historical data...
Loading historical data...
Loading historical data...
Loading historical data...
Loading historical data...

COSMOS 1275 DEB Visibility forecast

Observer location: undefined°, undefined

Span
Click to sort rows by Start time (UTC) header in descending order
Start Az.
Max El. time (UTC)
Max El. Az.
Max El.
End time (UTC)
End Az.
11 mins2024-12-26 15:54:16.619Z177.586° S2024-12-26 15:59:16.619Z106.577° ESE43.968°2024-12-26 16:05:16.619Z10.745° NNE
5 mins2024-12-26 17:43:16.619Z273.15° WNW2024-12-26 17:45:16.619Z295.388° NW14.591°2024-12-26 17:48:16.619Z326.047° NNW
10 mins2024-12-27 02:49:16.619Z7.731° NNE2024-12-27 02:53:16.619Z76.775° E39.656°2024-12-27 02:59:16.619Z157.792° S
6 mins2024-12-27 04:35:16.619Z306.686° NW2024-12-27 04:38:16.619Z270.19° WNW18.475°2024-12-27 04:41:16.619Z237.751° WSW
|